[Iaude] MPEC E136: 2022 ES3 [a=2.25,e=0.68,i=2.2,H=27.1]

mpec at marsden.cfa.harvard.edu mpec at marsden.cfa.harvard.edu
Wed Mar 9 02:43:04 EST 2022


M.P.E.C. 2022-E136                                Issued 2022 March 9, 07:41 UT

     The Minor Planet Electronic Circulars contain information on unusual
         minor planets and routine data on comets.  They are published
    on behalf of Division F of the International Astronomical Union by the
          Minor Planet Center, Smithsonian Astrophysical Observatory,
                          Cambridge, MA 02138, U.S.A.

             Prepared using the Tamkin Foundation Computer Network

                              MPC at CFA.HARVARD.EDU
            URL https://www.minorplanetcenter.net/    ISSN 1523-6714

                                    2022 ES3                                    


Observations:
     K22E03S* C2022 03 07.32349411 03 27.50 +11 57 16.7          21.33GVEE136V00
     K22E03S  C2022 03 07.33003811 03 27.03 +11 57 23.1          21.83GVEE136V00
     K22E03S  C2022 03 07.33663311 03 26.53 +11 57 30.6          21.27GVEE136V00
     K22E03S  C2022 03 07.34314511 03 26.07 +11 57 36.4          21.86GVEE136V00
     K22E03S KC2022 03 07.44595511 03 19.24 +11 59 15.5          21.41GVEE136I52
     K22E03S KC2022 03 07.45144011 03 18.85 +11 59 20.9          21.98GVEE136I52
     K22E03S KC2022 03 07.45790011 03 18.52 +11 59 27.1          21.78GVEE136I52
     K22E03S 1C2022 03 08.05257 11 03 04.33 +12 10 29.9          21.9 VXEE136033
     K22E03S 1C2022 03 08.05615 11 03 04.09 +12 10 34.4          22.0 VXEE136033
     K22E03S 1C2022 03 08.05974 11 03 03.88 +12 10 38.9          21.9 VXEE136033
     K22E03S 1C2022 03 08.06362 11 03 03.62 +12 10 43.5          21.2 VXEE136033
     K22E03S !C2022 03 08.37887 11 02 53.82 +12 18 30.5          21.3 RVEE136673
     K22E03S KC2022 03 08.38706911 02 52.08 +12 18 45.5          21.08GVEE136V06
     K22E03S KC2022 03 08.38945211 02 51.87 +12 18 48.5          22.10GVEE136V06
     K22E03S KC2022 03 08.39183511 02 51.65 +12 18 51.8          20.82GVEE136V06
     K22E03S KC2022 03 08.39422011 02 51.47 +12 18 54.1          20.50GVEE136V06
     K22E03S !C2022 03 08.41174 11 02 51.04 +12 19 15.6                VEE136673
     K22E03S KC2022 03 09.24672511 02 24.39 +12 43 11.3          21.06GVEE136I52
     K22E03S KC2022 03 09.24821811 02 24.23 +12 43 14.5          21.26GVEE136I52
     K22E03S KC2022 03 09.24971211 02 24.05 +12 43 17.8          20.83GVEE136I52

Observer details:
033 Karl Schwarzschild Observatory, Tautenburg.  Observers S. Melnikov, C.
    Hoegner, U. Laux, F. Ludwig, B. Stecklum.  Measurer B. Stecklum.  1.34-m
    f/3 Schmidt + CCD.
673 Table Mountain Observatory, Wrightwood.  Observer J. Pittichova.  1.0-m
    f/15 reflector + CCD.
I52 Steward Observatory, Mt. Lemmon Station.  Observers G. J. Leonard, H.
    Groeller.  Measurers E. J. Christensen, G. A. Farneth, J. B. Fazekas, D.
    C. Fuls, A. R. Gibbs, A. D. Grauer, H. Groeller, R. A. Kowalski, S. M.
    Larson, G. J. Leonard, D. Rankin, R. L. Seaman, A. Serrano, F. C. Shelly,
    K. W. Wierzchos.
V00 Kitt Peak-Bok.  Observers K. W. Wierzchos, J. V. Scotti.  Measurers M. J.
    Brucker, E. J. Christensen, C. E. Woodward, G. A. Farneth, J. B. Fazekas,
    D. C. Fuls, A. R. Gibbs, A. D. Grauer, H. Groeller, R. A. Kowalski, S. M.
    Larson, G. J. Leonard, R. S. McMillan, D. Rankin, R. L. Seaman, A.
    Serrano, F. C. Shelly, K. W. Wierzchos.  2.25-m reflector + CCD.
V06 Catalina Sky Survey-Kuiper.  Observer H. Groeller.  Measurers E. J.
    Christensen, G. A. Farneth, J. B. Fazekas, D. C. Fuls, A. R. Gibbs, A. D.
    Grauer, H. Groeller, R. A. Kowalski, S. M. Larson, G. J. Leonard, D.
    Rankin, R. L. Seaman, A. Serrano, F. C. Shelly, K. W. Wierzchos.  1.55-m
    reflector + 1K CCD.

Orbital elements:
2022 ES3                                                 Earth MOID = 0.0017 AU
Epoch 2022 Jan. 21.0 TT = JDT 2459600.5                 Veres                   
M 332.37148              (2000.0)            P               Q                  
n   0.29111133     Peri.  249.31553     -0.42907685     +0.90326231             
a   2.2547409      Node   355.27179     -0.81360439     -0.38802167             
e   0.6821738      Incl.    2.22638     -0.39235309     -0.18318400             
P   3.39           H   27.13          G   0.15           U   8                  
Residuals in seconds of arc
220307 V00  0.1+  0.2+    220308 033  0.0   0.1+    220308 V06  0.4-  0.2+
220307 V00  0.1+  0.1-    220308 033  0.1-  0.2+    220308 V06  0.1-  0.7-
220307 V00 (0.4-  0.8+)   220308 033  0.2+  0.3+    220308 673  0.2+  0.0
220307 V00  0.2-  0.0     220308 033  0.1+  0.2+    220309 I52  0.0   0.1-
220307 I52  0.8+  0.2-    220308 673  0.3-  0.1+    220309 I52  0.2+  0.0
220307 I52  0.3-  0.0     220308 V06  0.1-  0.3+    220309 I52  0.0   0.2+
220307 I52  0.2+  0.0     220308 V06  0.1-  0.1+

Ephemeris:
2022 ES3                 a,e,i = 2.25, 0.68, 2                   q = 0.7166
Date    TT    R. A. (2000) Decl.     Delta      r    Elong.  Phase     V
2022 02 07    11 01 23.8 +10 23 31   0.4022  1.3616   155.1    17.8    26.7
...
2022 02 22    11 04 46.8 +10 36 08   0.2162  1.2020   169.0     9.1    24.8
...
2022 03 02    11 04 41.6 +11 05 24   0.1262  1.1167   174.9     4.6    23.3
...
2022 03 08    11 03 09.1 +12 10 54   0.06149 1.0535   172.6     7.0    21.7
2022 03 09    11 02 32.1 +12 36 18   0.05086 1.0430   171.4     8.2    21.3
2022 03 10    11 01 36.8 +13 14 33   0.04027 1.0326   170.0     9.6    20.9
...
2022 03 16    23 12 22.7 -05 26 26   0.02333 0.9714     8.2   171.7
...
2022 03 24    23 07 34.2 -09 23 28   0.1089  0.8946    19.0   158.7    32.6
...
2022 04 08    23 14 01.5 -08 55 45   0.2818  0.7769    32.1   136.8    30.3

M. P. C. Staff               (C) Copyright 2022 MPC           M.P.E.C. 2022-E136




More information about the Iaude mailing list